timestamp,wind_dir_avg,wind_spd_max_dir,wind_spd_avg,wind_spd_gust,battery_voltage,lat,long
2018-06-24 00:00:00+00:00,228.0,230.0,11.22,12.24,,47.59359,-54.27349
2018-06-24 00:10:00+00:00,230.0,231.0,10.52,11.78,,47.59359,-54.27349
2018-06-24 00:20:00+00:00,233.0,231.0,9.88,11.47,,47.59359,-54.27349
2018-06-24 00:30:00+00:00,232.0,235.0,8.07,8.97,,47.59359,-54.27349
2018-06-24 00:40:00+00:00,229.0,228.0,7.96,8.97,,47.59359,-54.27349
2018-06-24 00:50:00+00:00,225.0,225.0,7.17,8.07,,47.59359,-54.27349
2018-06-24 01:00:00+00:00,220.0,223.0,7.33,9.19,,47.59359,-54.27349
2018-06-24 01:10:00+00:00,225.0,222.0,8.04,8.97,,47.59359,-54.27349
2018-06-24 01:20:00+00:00,219.0,222.0,8.09,9.11,,47.59359,-54.27349
2018-06-24 01:30:00+00:00,216.0,217.0,7.51,8.43,,47.59359,-54.27349
2018-06-24 01:40:00+00:00,221.0,219.0,7.75,8.51,,47.59359,-54.27349
2018-06-24 01:50:00+00:00,218.0,221.0,7.5,8.45,,47.59359,-54.27349
2018-06-24 02:00:00+00:00,213.0,214.0,7.7,8.36,,47.59359,-54.27349
2018-06-24 02:10:00+00:00,207.0,211.0,8.12,8.6,,47.59359,-54.27349
2018-06-24 02:20:00+00:00,202.0,206.0,7.72,8.33,,47.59359,-54.27349
2018-06-24 02:30:00+00:00,203.0,205.0,7.48,8.02,,47.59359,-54.27349
2018-06-24 02:40:00+00:00,205.0,205.0,6.56,7.22,,47.59359,-54.27349
2018-06-24 02:50:00+00:00,197.0,198.0,7.97,8.93,,47.59359,-54.27349
2018-06-24 03:00:00+00:00,214.0,216.0,8.42,9.12,,47.59359,-54.27349
2018-06-24 03:10:00+00:00,216.0,216.0,8.14,8.91,,47.59359,-54.27349
2018-06-24 03:20:00+00:00,205.0,208.0,7.75,8.52,,47.59359,-54.27349
2018-06-24 03:30:00+00:00,192.0,196.0,7.86,8.32,,47.59359,-54.27349
2018-06-24 03:40:00+00:00,201.0,204.0,7.7,8.59,,47.59359,-54.27349
2018-06-24 03:50:00+00:00,213.0,215.0,8.29,9.11,,47.59359,-54.27349
2018-06-24 04:00:00+00:00,213.0,214.0,8.5,9.29,,47.59359,-54.27349
2018-06-24 04:10:00+00:00,216.0,216.0,8.17,9.04,,47.59359,-54.27349
2018-06-24 04:20:00+00:00,224.0,227.0,8.13,8.82,,47.59359,-54.27349
2018-06-24 04:30:00+00:00,226.0,224.0,8.37,8.99,,47.59359,-54.27349
2018-06-24 04:40:00+00:00,224.0,226.0,8.05,8.77,,47.59359,-54.27349
2018-06-24 04:50:00+00:00,223.0,224.0,8.07,8.88,,47.59359,-54.27349
2018-06-24 05:00:00+00:00,226.0,222.0,7.86,8.53,,47.59359,-54.27349
2018-06-24 05:10:00+00:00,223.0,223.0,8.21,8.93,,47.59359,-54.27349
2018-06-24 05:20:00+00:00,224.0,225.0,7.83,8.47,,47.59359,-54.27349
2018-06-24 05:30:00+00:00,225.0,222.0,7.03,7.94,,47.59359,-54.27349
2018-06-24 05:40:00+00:00,226.0,228.0,6.77,7.62,,47.59359,-54.27349
2018-06-24 05:50:00+00:00,230.0,230.0,7.11,8.7,,47.59359,-54.27349
2018-06-24 06:00:00+00:00,233.0,234.0,7.27,8.04,,47.59359,-54.27349
2018-06-24 06:10:00+00:00,226.0,223.0,8.67,9.37,,47.59359,-54.27349
2018-06-24 06:20:00+00:00,221.0,222.0,8.52,9.22,,47.59359,-54.27349
2018-06-24 06:30:00+00:00,218.0,221.0,9.4,10.22,,47.59359,-54.27349
2018-06-24 06:40:00+00:00,221.0,220.0,8.64,9.37,,47.59359,-54.27349
2018-06-24 06:50:00+00:00,225.0,228.0,7.82,8.61,,47.59359,-54.27349
2018-06-24 07:00:00+00:00,225.0,220.0,7.7,8.3,,47.59359,-54.27349
2018-06-24 07:10:00+00:00,228.0,230.0,8.04,9.51,,47.59359,-54.27349
2018-06-24 07:20:00+00:00,230.0,223.0,7.99,9.17,,47.59359,-54.27349
2018-06-24 07:30:00+00:00,226.0,224.0,7.29,7.93,,47.59359,-54.27349
2018-06-24 07:40:00+00:00,227.0,228.0,6.76,7.54,,47.59359,-54.27349
2018-06-24 07:50:00+00:00,229.0,230.0,6.15,6.77,,47.59359,-54.27349
2018-06-24 08:00:00+00:00,223.0,223.0,6.53,7.3,,47.59359,-54.27349
2018-06-24 08:10:00+00:00,222.0,223.0,6.37,7.0,,47.59359,-54.27349
2018-06-24 08:20:00+00:00,230.0,235.0,7.53,8.62,,47.59359,-54.27349
2018-06-24 08:30:00+00:00,226.0,230.0,7.63,8.3,,47.59359,-54.27349
2018-06-24 08:40:00+00:00,228.0,229.0,7.12,7.62,,47.59359,-54.27349
2018-06-24 08:50:00+00:00,227.0,230.0,6.77,7.68,,47.59359,-54.27349
2018-06-24 09:00:00+00:00,222.0,223.0,6.89,7.38,,47.59359,-54.27349
2018-06-24 09:10:00+00:00,229.0,229.0,7.99,9.01,,47.59359,-54.27349
2018-06-24 09:20:00+00:00,225.0,223.0,7.93,9.05,,47.59359,-54.27349
2018-06-24 09:30:00+00:00,229.0,227.0,8.14,8.79,,47.59359,-54.27349
2018-06-24 09:40:00+00:00,232.0,234.0,8.05,9.03,,47.59359,-54.27349
2018-06-24 09:50:00+00:00,223.0,222.0,9.13,10.0,,47.59359,-54.27349
2018-06-24 10:00:00+00:00,222.0,222.0,9.14,10.03,,47.59359,-54.27349
2018-06-24 10:10:00+00:00,218.0,221.0,6.53,7.22,,47.59359,-54.27349
2018-06-24 10:20:00+00:00,223.0,228.0,7.37,8.13,,47.59359,-54.27349
2018-06-24 10:30:00+00:00,220.0,223.0,5.23,5.99,,47.59359,-54.27349
2018-06-24 10:40:00+00:00,207.0,208.0,5.73,6.12,,47.59359,-54.27349
2018-06-24 10:50:00+00:00,206.0,208.0,6.37,6.75,,47.59359,-54.27349
2018-06-24 11:00:00+00:00,214.0,216.0,5.91,6.34,,47.59359,-54.27349
2018-06-24 11:10:00+00:00,212.0,223.0,3.88,4.5,,47.59359,-54.27349
2018-06-24 11:20:00+00:00,206.0,209.0,4.23,4.54,,47.59359,-54.27349
2018-06-24 11:30:00+00:00,203.0,201.0,4.08,4.72,,47.59359,-54.27349
2018-06-24 11:40:00+00:00,206.0,207.0,5.14,5.69,,47.59359,-54.27349
2018-06-24 11:50:00+00:00,205.0,207.0,6.08,6.43,,47.59359,-54.27349
2018-06-24 12:00:00+00:00,218.0,218.0,6.75,6.94,,47.59359,-54.27349
2018-06-24 12:10:00+00:00,216.0,216.0,6.68,6.83,,47.59359,-54.27349
2018-06-24 12:20:00+00:00,221.0,223.0,6.63,6.87,,47.59359,-54.27349
2018-06-24 12:30:00+00:00,228.0,228.0,6.94,7.4,,47.59359,-54.27349
2018-06-24 12:40:00+00:00,227.0,229.0,7.07,7.64,,47.59359,-54.27349
2018-06-24 12:50:00+00:00,220.0,220.0,6.23,6.72,,47.59359,-54.27349
2018-06-24 13:00:00+00:00,184.0,187.0,4.56,5.24,,47.59359,-54.27349
2018-06-24 13:10:00+00:00,209.0,208.0,3.59,3.93,,47.59359,-54.27349
2018-06-24 13:20:00+00:00,228.0,226.0,4.5,5.25,,47.59359,-54.27349
2018-06-24 13:30:00+00:00,233.0,237.0,5.17,6.05,,47.59359,-54.27349
2018-06-24 13:40:00+00:00,244.0,250.0,6.53,7.22,,47.59359,-54.27349
2018-06-24 13:50:00+00:00,251.0,253.0,5.91,6.57,,47.59359,-54.27349
2018-06-24 14:00:00+00:00,237.0,236.0,6.63,7.64,,47.59359,-54.27349
2018-06-24 14:10:00+00:00,235.0,243.0,3.85,5.13,,47.59359,-54.27349
2018-06-24 14:20:00+00:00,246.0,246.0,3.72,4.17,,47.59359,-54.27349
2018-06-24 14:30:00+00:00,248.0,248.0,2.75,3.02,,47.59359,-54.27349
2018-06-24 14:40:00+00:00,270.0,277.0,1.33,1.8,,47.59359,-54.27349
2018-06-24 14:50:00+00:00,132.0,124.0,0.92,1.29,,47.59359,-54.27349
2018-06-24 15:00:00+00:00,311.0,321.0,0.81,0.97,,47.59359,-54.27349
2018-06-24 15:10:00+00:00,120.0,120.0,0.97,1.14,,47.59359,-54.27349
2018-06-24 15:20:00+00:00,98.0,104.0,0.85,1.18,,47.59359,-54.27349
2018-06-24 15:30:00+00:00,93.0,97.0,0.68,0.82,,47.59359,-54.27349
2018-06-24 15:40:00+00:00,128.0,131.0,0.7,0.83,,47.59359,-54.27349
2018-06-24 15:50:00+00:00,279.0,277.0,0.23,0.36,,47.59359,-54.27349
2018-06-24 16:00:00+00:00,37.0,47.0,1.23,1.66,,47.59359,-54.27349
2018-06-24 16:10:00+00:00,57.0,55.0,2.68,2.97,,47.59359,-54.27349
2018-06-24 16:20:00+00:00,57.0,58.0,3.28,3.58,,47.59359,-54.27349
2018-06-24 16:30:00+00:00,68.0,68.0,3.25,3.63,,47.59359,-54.27349
2018-06-24 16:40:00+00:00,63.0,61.0,3.51,3.78,,47.59359,-54.27349
2018-06-24 16:50:00+00:00,65.0,64.0,4.08,4.41,,47.59359,-54.27349
2018-06-24 17:00:00+00:00,70.0,70.0,4.19,4.68,,47.59359,-54.27349
2018-06-24 17:10:00+00:00,73.0,74.0,3.83,4.22,,47.59359,-54.27349
2018-06-24 17:20:00+00:00,80.0,80.0,3.94,4.28,,47.59359,-54.27349
2018-06-24 17:30:00+00:00,84.0,83.0,2.24,2.74,,47.59359,-54.27349
2018-06-24 17:40:00+00:00,107.0,108.0,2.15,2.8,,47.59359,-54.27349
2018-06-24 17:50:00+00:00,114.0,102.0,3.21,3.76,,47.59359,-54.27349
2018-06-24 18:00:00+00:00,128.0,120.0,2.69,3.15,,47.59359,-54.27349
2018-06-24 18:10:00+00:00,120.0,117.0,1.69,2.63,,47.59359,-54.27349
2018-06-24 18:20:00+00:00,73.0,73.0,1.38,2.08,,47.59359,-54.27349
2018-06-24 18:30:00+00:00,28.0,31.0,5.46,6.0,,47.59359,-54.27349
2018-06-24 18:40:00+00:00,46.0,47.0,5.39,5.56,,47.59359,-54.27349
2018-06-24 18:50:00+00:00,44.0,44.0,5.38,5.49,,47.59359,-54.27349
2018-06-24 19:00:00+00:00,52.0,48.0,3.68,4.02,,47.59359,-54.27349
2018-06-24 19:10:00+00:00,50.0,51.0,3.91,4.21,,47.59359,-54.27349
2018-06-24 19:20:00+00:00,42.0,43.0,4.92,5.07,,47.59359,-54.27349
2018-06-24 19:30:00+00:00,32.0,36.0,4.21,4.66,,47.59359,-54.27349
2018-06-24 19:40:00+00:00,19.0,32.0,5.2,5.77,,47.59359,-54.27349
2018-06-24 19:50:00+00:00,19.0,18.0,4.51,5.08,,47.59359,-54.27349
2018-06-24 20:00:00+00:00,37.0,37.0,3.2,3.51,,47.59359,-54.27349
2018-06-24 20:10:00+00:00,42.0,42.0,3.28,3.38,,47.59359,-54.27349
2018-06-24 20:20:00+00:00,72.0,72.0,2.85,3.07,,47.59359,-54.27349
2018-06-24 20:30:00+00:00,58.0,58.0,2.12,2.3,,47.59359,-54.27349
2018-06-24 20:40:00+00:00,73.0,69.0,1.68,2.01,,47.59359,-54.27349
2018-06-24 20:50:00+00:00,77.0,81.0,2.11,2.69,,47.59359,-54.27349
2018-06-24 21:00:00+00:00,89.0,105.0,1.39,1.87,,47.59359,-54.27349
2018-06-24 21:10:00+00:00,89.0,89.0,2.31,2.83,,47.59359,-54.27349
2018-06-24 21:20:00+00:00,120.0,125.0,1.76,2.39,,47.59359,-54.27349
2018-06-24 21:30:00+00:00,108.0,99.0,0.74,1.23,,47.59359,-54.27349
2018-06-24 21:40:00+00:00,334.0,332.0,2.78,3.07,,47.59359,-54.27349
2018-06-24 21:50:00+00:00,357.0,356.0,3.26,3.41,,47.59359,-54.27349
2018-06-24 22:00:00+00:00,13.0,13.0,2.25,2.38,,47.59359,-54.27349
2018-06-24 22:10:00+00:00,13.0,16.0,1.41,1.5,,47.59359,-54.27349
2018-06-24 22:20:00+00:00,34.0,36.0,1.66,1.74,,47.59359,-54.27349
2018-06-24 22:30:00+00:00,44.0,42.0,1.5,1.67,,47.59359,-54.27349
2018-06-24 22:40:00+00:00,31.0,33.0,1.41,1.57,,47.59359,-54.27349
2018-06-24 22:50:00+00:00,42.0,42.0,1.01,1.18,,47.59359,-54.27349
2018-06-24 23:00:00+00:00,353.0,352.0,0.79,0.93,,47.59359,-54.27349
2018-06-24 23:10:00+00:00,1.0,356.0,0.37,0.55,,47.59359,-54.27349
2018-06-24 23:20:00+00:00,263.0,259.0,1.35,1.47,,47.59359,-54.27349
2018-06-24 23:30:00+00:00,294.0,294.0,1.57,1.69,,47.59359,-54.27349
2018-06-24 23:40:00+00:00,321.0,320.0,1.56,1.69,,47.59359,-54.27349
2018-06-24 23:50:00+00:00,323.0,323.0,1.51,1.57,,47.59359,-54.27349
